Content
SEND FEEDBACK

Daily
Averages
Monthly
Summary
United Kingdom

SAFFRON WALDEN, ENGLAND


Home > Europe > United Kingdom > England
Elevation: 326 feet     Latitude: 51 58N     Longitude: 000 31E

WEATHER
 
SELECT A DAY
Number of Records: 296,611;   Date Range: 7/1/96 - 8/18/14
 
SHARE

PRINT THIS DATA

[ ← Previous Day ]
WEATHER ALMANAC - OCTOBER 8, 2013
[ Next Day → ]
[ °C ]   °F
We're sorry. There is no daily almanac available for Saffron Walden, England on October 8, 2013.
WEATHER BY HOUR - OCTOBER 8, 2013
[ °C ]   °F
Local TimeTemperatureDewpointHumidityBarometerVisibilityWind DirectionWind SpeedGust SpeedPrecipitationEventsConditions
12:50 AM51.8 °F50.0 °F94 %30.24 in3.7 miSW (220°)6.9 mph
1:20 AM51.8 °F50.0 °F94 %30.24 in3.7 miSW (220°)5.8 mphPartly Cloudy
1:50 AM53.6 °F51.8 °F94 %30.24 in3.7 miSW (220°)6.9 mphPartly Cloudy
2:20 AM53.6 °F51.8 °F94 %30.24 in3.1 miSW (230°)6.9 mphScattered Clouds
2:50 AM55.4 °F53.6 °F94 %30.24 in3.1 miWSW (240°)5.8 mphOvercast
3:20 AM55.4 °F53.6 °F94 %30.24 inWSW (240°)5.8 mphOvercast
3:50 AM53.6 °F53.6 °F100 %30.24 in1.1 miWSW (250°)4.6 mphMostly Cloudy
4:20 AM55.4 °F53.6 °F94 %30.24 in0.6 miWSW (240°)6.9 mphFogFog
4:50 AM55.4 °F53.6 °F94 %30.24 in0.2 miWSW (250°)5.8 mphFogFog
5:20 AM55.4 °F53.6 °F94 %30.24 in0.7 miWest (260°)10.4 mphOvercast
5:50 AM55.4 °F53.6 °F94 %30.24 in1.9 miWest (260°)9.2 mphMostly Cloudy
6:20 AM55.4 °F53.6 °F94 %30.24 inWSW (250°)10.4 mphOvercast
6:50 AM55.4 °F53.6 °F94 %30.24 in1.7 miWSW (240°)8.1 mphOvercast
7:20 AM53.6 °F53.6 °F100 %30.24 in1.7 miWSW (250°)5.8 mphMostly Cloudy
7:50 AM53.6 °F53.6 °F100 %30.27 in1.0 miWSW (240°)6.9 mphPartly Cloudy
8:20 AM55.4 °F53.6 °F94 %30.27 inWSW (240°)9.2 mphScattered Clouds
8:50 AM57.2 °F55.4 °F94 %30.27 inSW (230°)8.1 mphMist
9:20 AM59.0 °F55.4 °F88 %30.27 in4.3 miSW (230°)10.4 mphPartly Cloudy
9:50 AM59.0 °F57.2 °F94 %30.27 in5.6 miWSW (240°)11.5 mphScattered Clouds
10:20 AM60.8 °F57.2 °F88 %30.27 in5.6 miWSW (240°)11.5 mphMostly Cloudy
10:50 AM60.8 °F57.2 °F88 %30.27 in6.2 miWSW (250°)8.1 mphScattered Clouds
11:20 AM62.6 °F57.2 °F82 %30.27 in6.2 miWSW (240°)9.2 mphScattered Clouds
11:50 AM62.6 °F57.2 °F82 %30.27 in6.2 miWSW (240°)10.4 mphMostly Cloudy
12:20 PM62.6 °F57.2 °F82 %30.24 in6.2 miWSW (250°)10.4 mphMostly Cloudy
12:50 PM64.4 °F57.2 °F77 %30.24 in6.2 miWSW (240°)9.2 mphPartly Cloudy
1:20 PM66.2 °F59.0 °F78 %30.24 in6.2 miWSW (240°)10.4 mphPartly Cloudy
1:50 PM66.2 °F57.2 °F73 %30.24 in6.2 miWSW (250°)10.4 mphMostly Cloudy
2:20 PM64.4 °F57.2 °F77 %30.24 in6.2 miWSW (250°)10.4 mphScattered Clouds
2:50 PM66.2 °F59.0 °F78 %30.24 in6.2 miSW (230°)9.2 mphScattered Clouds
3:20 PM66.2 °F59.0 °F78 %30.21 in6.2 miWest (260°)9.2 mphMostly Cloudy
3:50 PM66.2 °F59.0 °F78 %30.21 in6.2 miWSW (250°)11.5 mphScattered Clouds
4:20 PM66.2 °F57.2 °F73 %30.24 in6.2 miWest (260°)10.4 mphMostly Cloudy
4:50 PM64.4 °F57.2 °F77 %30.24 in6.2 miWSW (250°)10.4 mphPartly Cloudy
5:20 PM64.4 °F57.2 °F77 %30.21 inWSW (240°)8.1 mphClear
5:50 PM62.6 °F57.2 °F82 %30.21 inWSW (240°)8.1 mphClear
6:20 PM60.8 °F55.4 °F82 %30.21 inWSW (240°)6.9 mphClear
6:50 PM59.0 °F55.4 °F88 %30.24 inSW (230°)4.6 mphClear
7:20 PM60.8 °F57.2 °F88 %30.24 inWSW (240°)6.9 mphClear
7:50 PM60.8 °F57.2 °F88 %30.24 inWSW (250°)5.8 mphClear
8:20 PM60.8 °F57.2 °F88 %30.24 inWSW (250°)6.9 mphClear
8:50 PM60.8 °F57.2 °F88 %30.24 in6.2 miWSW (250°)5.8 mphPartly Cloudy
9:20 PM60.8 °F57.2 °F88 %30.24 in6.2 miWest (260°)4.6 mphMostly Cloudy
9:50 PM59.0 °F57.2 °F94 %30.24 in6.2 miWest (270°)3.5 mphMostly Cloudy
10:20 PM59.0 °F57.2 °F94 %30.24 in6.2 miWest (260°)4.6 mphMostly Cloudy
10:50 PM57.2 °F55.4 °F94 %30.24 in6.2 miWSW (250°)3.5 mphScattered Clouds
11:20 PM55.4 °F53.6 °F94 %30.24 in6.2 miWest (260°)4.6 mph
11:50 PM55.4 °F53.6 °F94 %30.24 inWNW (290°)3.5 mphClear
Hourly data recorded from EGSS, located miles away from Saffron Walden, England







STORIES FROM OUR PARTNERS